Regional Weather Roundup
Issued by NWS

Home | Current Version | Previous Version | Text Only | Print | Product List | Glossary Off
Versions: 1 2 3 4 5 6 7 8 9 10 11 12 13 14 15 16 17 18 19 20 21 22 23 24 25 26 27

000
ASUS45 KTFX 210810
RWRMT
MONTANA REGIONAL WEATHER ROUNDUP
NATIONAL WEATHER SERVICE GREAT FALLS MT
100 AM MST SAT JAN 21 2017

NOTE: "FAIR" INDICATES FEW OR NO CLOUDS BELOW 12000 FEET WITH NO
SIGNIFICANT WEATHER AND/OR OBSTRUCTIONS TO VISIBILITY.

MTZ001>007-043-210900-
WEST OF THE DIVIDE

CITY           SKY/WX    TMP DP  RH WIND       PRES   REMARKS
KALISPELL      CLEAR     14  12  92 NW3       29.31F
MISSOULA       CLOUDY    24  23  96 E5        29.33F FOG
BUTTE          CLOUDY     3   0  87 CALM      29.31S
MULLAN PASS    CLOUDY    23  20  88 SE9       29.21S WCI  13
ANACONDA         N/A     16   9  73 S6        29.31F WCI   7
DEER LODGE       N/A     18  12  79 CALM      29.34S
EUREKA           N/A     19  18  93 CALM      29.36S
HAMILTON         N/A     21  18  86 CALM      29.32
RONAN            N/A     11   7  84 CALM      29.38S
$$

MTZ008-052>055-210900-
SOUTHWEST MONTANA

CITY           SKY/WX    TMP DP  RH WIND       PRES   REMARKS
BOZEMAN        CLOUDY    14   9  80 SW3       29.34F
DILLON         CLOUDY    21  10  62 S9        29.30F WCI  11
W YELLOWSTONE  CLOUDY    14  12  92 CALM      29.32F
ENNIS          CLOUDY    21  16  79 E6        29.35F WCI  14
TWIN BRIDGES     N/A     12   3  67 CALM      29.39F
$$

MTZ009-010-012-014-046-048-049-054-210900-
EAST SLOPES AND CENTRAL MONTANA

CITY           SKY/WX    TMP DP  RH WIND       PRES   REMARKS
CUT BANK       CLEAR     17  15  92 NW6       29.31S WCI   9
GREAT FALLS    CLEAR     24  17  74 S9        29.31F WCI  14
MALMSTROM AFB  CLEAR     24  19  81 CALM      29.33S
HELENA         CLOUDY    13  10  88 CALM      29.34F
AUGUSTA          N/A     15  12  85 N6        29.29F WCI   7
BOWMANS CRNR     N/A     24  17  74 S14       29.28S WCI  11
CHOTEAU          N/A     19  18  93 CALM      29.32F
CONRAD           N/A     10   7  88 CALM      29.39S
POWER            N/A     15  11  85 NW3       29.31S
RAYNESFORD       N/A     28  17  63 S10       29.31F WCI  19
ULM              N/A     22  16  79 MISG      29.32S
$$

MTZ011-013-016-021-045-047-050-051-210900-
NORTH CENTRAL MONTANA

CITY           SKY/WX    TMP DP  RH WIND       PRES   REMARKS
HAVRE          CLEAR     18  16  92 CALM      29.34F
LEWISTOWN      CLEAR     21  16  81 SE6       29.32S WCI  13
CHINOOK          N/A     21  19  93 N3        29.35F
DENTON           N/A     23  18  80 W10       29.29F WCI  13
FORT BENTON      N/A     25  21  86 MISG      29.35S
GEYSER           N/A     26  17  70 SW9       29.31S WCI  16
GRASS RANGE      N/A     25  22  87 NW5       29.29F
JUDITH GAP       N/A     23  17  79 S16       29.32S WCI   9
ROY              N/A     30  24  78 MISG      29.31F
STANFORD         N/A     25  16  67 CALM      29.31S
WINIFRED         N/A     28  23  81 W3        29.31F
$$

MTZ017>020-022>027-061-062-210900-
NORTHEAST MONTANA

CITY           SKY/WX    TMP DP  RH WIND       PRES   REMARKS
GLASGOW        CLOUDY    22  21  96 NW7       29.33S WCI  13
JORDAN           N/A     23  19  85 W3        29.34S
SIDNEY         CLOUDY    34  29  82 NW13      29.31F WCI  25
WOLF POINT     CLOUDY    28  24  85 W10       29.33S WCI  19
PLENTYWOOD       N/A     32  27  80 CALM      29.30S
POPLAR           N/A     28  27  93 W5        29.34R
$$

MTZ028>42-056>058-210900-
SOUTHCENTRAL AND SOUTHEAST MONTANA

CITY           SKY/WX    TMP DP  RH WIND       PRES   REMARKS
BAKER          CLOUDY    28  26  92 W9        29.33F WCI  19
BILLINGS       CLEAR     26  23  88 SW18      29.34F WCI  13
LIVINGSTON     CLOUDY    14   8  77 NW5       29.33F
MILES CITY     FOG       20  18  92 CALM      29.35F VSB<1/4
BIG TIMBER     CLEAR     21  14  73 SW6       29.36S WCI  14
FORSYTH          N/A     27  27 100 W3        29.35F
HARLOWTON        N/A     16  12  84 W16       29.33S WCI   1
LAUREL           N/A     21  13  71 SW6       29.39F WCI  13
$$

REGIONAL REPORTS...DAKOTAS

CITY           SKY/WX    TMP DP  RH WIND       PRES   REMARKS
WILLISTON      CLOUDY    22  20  92 CALM      29.30F
MINOT          CLOUDY    29  28  96 CALM      29.31S FOG
DICKINSON      CLOUDY    28  25  88 NW12      29.26F WCI  18
BEACH          CLOUDY    32  30  93 W15       29.34S WCI  22
CROSBY           N/A      9   7  92 E5        29.32F
TIOGA          FOG       10  10 100 W5        29.30F VSB 1/4
WATFORD CITY   CLOUDY    23  21  93 CALM      29.30F
BISMARCK       CLOUDY    31  30  96 NW6       29.32S FOG     WCI  25
GRAND FORKS    CLOUDY    35  32  88 SE10      29.42S WCI  27
FARGO          CLOUDY    39  35  86 SE9       29.41F
BUFFALO SD       N/A     33  31  92 W10       29.25F WCI  25
RAPID CITY     CLOUDY    34  31  88 N15       29.34F WCI  24
$$

REGIONAL REPORTS...WYOMING/IDAHO/WASHINGTON

CITY           SKY/WX    TMP DP  RH WIND       PRES   REMARKS
GILLETTE       CLEAR     22  21  96 SE3       29.35F
SHERIDAN       CLEAR     19  16  88 VRB5      29.35S
BUFFALO WY     CLEAR     32  21  64 SW5       29.34F
CODY           CLOUDY    24  12  60 W7        29.34F WCI  16
YELLOWSTONE LA   N/A      1  -1  91 CALM      29.34F
IDAHO FALLS    FLURRIES  21  19  92 N6        29.31F WCI  13
SALMON         CLOUDY     9   5  85 S5        29.34F
BOISE          CLOUDY    35  31  85 SE12      29.27S WCI  27
SPOKANE        CLOUDY    36  29  75 NE7       29.23S WCI  30
$$

REGIONAL REPORTS...ALBERTA

CITY           SKY/WX    TMP DP  RH WIND       PRES   REMARKS
EDMONTON       PTCLDY    18  10  73 E3        29.37S VSB 1/8
CALGARY        CLEAR     19  12  73 N3        29.32R
LETHBRIDGE     CLEAR     23  18  80 SW12      29.31F WCI  12
MEDICINE HAT   CLEAR     19  18  93 VRB2      29.33F
WATERTON GATE    N/A     19  12  73 SW7         N/A  WCI  10
CARDSTON         N/A     21  14  73 S2          N/A
MILK RIVER       N/A     19  18  93 NW7         N/A  WCI  10
ONEFOUR          N/A     19  19 100 E1          N/A
$$

REGIONAL REPORTS...SASKATCHEWAN

CITY           SKY/WX    TMP DP  RH WIND       PRES   REMARKS
SWIFT CURRENT  CLOUDY    25  23  93 W12       29.28S WCI  14
REGINA         CLOUDY    19  18  93 SE7       29.28F WCI  10
SASKATOON      CLOUDY    28  27  93 N6        29.34R WCI  22
CYPRESS HILLS    N/A     27  16  63 NW3         N/A
VAL MARIE        N/A     14  12  92 W2          N/A
ROCKGLEN         N/A     30  23  74 W12         N/A  WCI  21
ASSINIBOIA       N/A     12  10  92 W2          N/A
$$




USA.gov is the U.S. government's official web portal to all federal, state and local government web resources and services.